Tracking 30701 objects as of 14-Jun-2025
HD Live streaming from Space Station
objects crossing your sky now

STARLINK-4795

Track STARLINK-4795 now!
10-day predictions
STARLINK-4795 is classified as:


NORAD ID: 53856
Int'l Code: 2022-114AQ
Perigee: 545.7 km
Apogee: 547.9 km
Inclination: 53.2 °
Period: 95.4 minutes
Semi major axis: 6917 km
RCS: Unknown
Launch date: September 19, 2022
Source: United States (US)
Launch site: AIR FORCE EASTERN TEST RANGE (AFETR)
Your satellite tracking list
Your tracking list is empty




NASA's NSSDC Master Catalog

Two Line Element Set (TLE):
1 53856U 22114AQ  25164.84025752 -.00007664  00000-0 -46358-3 0  9992
2 53856  53.2172  51.1070 0001585  82.6776 277.4396 15.08869036152527
Source of the keplerian elements: AFSPC